Theta_e
346 344 345 345 346 346 347 348 349 350 349 348 348 345 340 340 341 341 341 338 342 344 343 344 343 338 340 342 336 337 343 338 337 339 339 338 338 340 343 341 341 339 335
347 347 348 348 348 348 348 349 350 349 347 347 349 347 345 344 343 343 340 342 333 336 337 341 339 338 343 344 344 343 340 337 338 340 340 341 341 341 338 341 341 340 335
351 349 348 348 348 350 351 350 350 348 346 346 349 348 345 345 346 346 345 345 347 342 333 334 336 337 337 337 341 345 344 342 341 340 342 341 338 337 336 334 335 335 334
352 352 349 347 349 350 349 348 348 346 346 346 347 346 345 344 345 346 345 346 345 344 346 340 338 339 339 342 345 343 340 338 337 340 340 340 335 333 332 333 331 330 330
351 350 349 349 350 349 348 347 348 346 346 345 345 345 345 345 345 343 346 346 345 345 344 345 343 341 340 341 341 341 340 338 336 332 330 331 330 329 328 327 326 325 325
349 351 351 351 349 348 348 348 348 347 347 346 344 344 344 345 345 345 345 344 345 347 346 348 347 346 343 342 341 341 340 339 337 335 332 328 327 328 328 327 326 325 324
352 353 350 349 350 348 350 350 350 349 345 347 345 343 341 342 344 343 343 343 345 346 347 348 349 346 345 345 343 339 339 339 340 340 340 339 336 334 333 332 331 329 328
351 352 350 348 349 349 352 352 351 346 345 346 343 340 341 342 341 340 341 342 343 344 344 346 347 349 349 346 345 340 339 340 340 341 341 342 342 342 342 342 340 338 335
352 353 349 351 352 351 348 352 350 349 345 347 349 346 345 344 343 342 343 340 343 342 343 345 345 347 349 348 348 347 344 341 342 342 342 342 342 342 342 343 343 343 342
353 354 354 353 354 350 350 352 349 348 349 342 346 345 348 348 346 345 343 342 341 341 343 343 342 344 347 347 346 345 341 341 341 341 341 342 345 348 350 350 350 350 348
353 352 353 354 354 352 353 351 352 350 344 344 343 344 348 346 350 347 345 343 341 341 343 344 344 344 347 348 348 348 344 343 344 347 349 351 350 346 344 344 346 348 348
353 355 354 355 354 352 353 352 353 353 351 349 346 346 346 344 346 346 345 344 344 343 344 345 345 346 347 349 348 345 346 348 349 348 352 352 350 346 347 346 351 355 354
351 355 356 355 352 350 353 353 351 351 352 350 351 345 346 346 347 349 347 345 345 344 344 345 347 348 348 349 350 346 352 349 346 348 353 352 348 348 347 348 352 353 356
351 352 355 353 353 353 353 353 350 349 350 350 352 352 347 348 348 348 348 347 346 345 346 347 345 346 346 349 351 349 352 353 346 351 348 347 350 348 347 350 351 354 357
351 354 355 351 352 353 353 355 351 353 353 352 351 352 351 347 348 348 348 347 347 347 346 349 346 346 347 346 350 352 353 352 350 350 346 350 349 347 348 352 355 357 358
351 352 356 356 353 354 354 355 352 354 353 350 350 352 353 347 348 348 348 347 346 345 347 343 346 348 351 350 349 353 354 350 349 349 347 349 349 350 353 356 356 357 357
352 353 356 355 353 355 356 356 353 353 352 352 352 353 354 353 350 346 347 347 346 346 346 343 344 346 352 354 355 356 354 351 345 348 348 347 350 353 356 356 356 357 357
351 354 354 354 354 353 355 356 354 350 354 354 353 354 354 352 354 352 349 349 347 347 348 348 346 346 349 351 354 357 354 349 350 350 346 347 352 354 356 357 357 357 356
351 351 353 355 354 352 354 357 356 355 355 354 355 355 354 353 354 351 351 349 350 351 351 350 349 348 348 350 353 353 353 351 347 347 347 346 350 356 358 358 357 356 356
351 350 351 353 354 354 352 354 355 357 356 357 357 356 355 353 354 356 354 354 355 355 353 352 350 349 349 350 352 351 347 346 346 347 348 348 349 357 359 359 354 354 355
352 352 350 350 351 352 353 353 353 357 357 358 357 358 356 354 352 354 353 352 353 355 352 350 349 349 349 349 351 347 347 346 346 345 346 348 347 357 358 357 351 354 353
352 352 352 351 349 346 347 350 353 355 354 357 357 357 357 355 354 350 348 347 350 354 354 350 345 345 349 350 347 347 347 347 348 345 348 347 348 357 359 357 353 354 354
351 352 353 352 352 350 345 345 348 350 351 355 356 356 355 353 355 356 355 351 350 349 349 352 354 352 351 350 352 354 353 353 352 350 350 350 351 356 361 354 352 355 354
353 353 353 353 353 352 351 347 344 348 349 351 352 354 356 353 351 354 355 354 355 355 354 352 352 353 353 353 353 354 356 357 354 350 348 350 350 355 360 359 356 355 353
353 353 353 353 354 354 352 350 347 347 346 348 350 352 354 355 355 354 353 351 352 352 350 351 349 348 351 351 349 351 351 349 346 343 343 345 348 355 357 358 354 354 352
353 353 353 353 354 354 354 352 349 348 348 347 345 349 352 352 353 354 355 355 354 350 347 346 349 350 351 350 348 349 352 352 347 344 344 350 348 352 356 359 361 350 347
Wind_Speed
11 11 11 9 8 7 7 7 7 7 6 8 9 9 9 8 8 7 6 3 4 3 3 3 5 4 4 6 6 5 5 7 7 8 9 9 10 8 10 9 9 11 9
10 10 9 7 7 6 6 6 6 7 7 8 8 8 8 8 7 5 6 5 3 2 2 3 2 2 3 3 5 6 6 7 8 9 9 9 10 10 10 8 8 9 8
7 6 6 6 5 4 3 4 5 7 8 8 8 7 7 6 7 5 5 5 3 5 3 2 1 3 3 3 4 5 7 8 9 9 10 10 10 10 9 8 8 9 8
5 5 6 4 5 4 4 3 3 7 7 8 7 6 6 5 5 4 4 3 3 2 3 6 4 4 4 4 5 5 6 7 8 8 10 11 10 10 10 9 9 9 8
6 6 6 6 4 5 4 4 5 5 6 6 9 7 6 5 4 5 3 3 2 2 2 5 7 5 6 6 6 6 6 7 7 8 9 10 10 10 10 10 10 10 10
4 5 5 5 7 6 4 5 4 3 4 3 4 6 3 3 3 2 2 2 1 0 1 2 4 4 8 7 7 6 7 7 7 8 10 11 11 11 11 11 10 11 11
5 5 4 6 6 6 4 4 5 5 5 3 4 5 4 3 2 1 1 0 1 0 1 2 2 3 4 8 7 7 6 6 7 9 10 11 12 12 13 13 12 12 13
5 5 5 7 6 6 5 3 5 5 4 2 4 2 2 8 4 2 1 1 0 0 1 1 2 3 3 2 4 7 6 8 9 10 11 12 14 15 16 16 16 16 16
7 6 8 5 5 4 7 4 5 4 5 2 1 6 1 5 4 4 3 2 1 1 1 1 1 2 2 2 4 6 9 9 10 12 14 15 17 18 18 19 19 20 20
7 8 7 7 5 5 4 5 4 2 3 7 3 3 4 5 4 5 8 5 3 2 2 1 1 1 2 2 4 5 7 10 11 13 14 15 15 15 16 16 16 16 18
7 7 7 8 6 5 6 6 5 3 3 1 1 2 2 2 3 6 5 6 7 4 4 2 2 1 2 3 5 7 12 10 10 11 13 14 13 16 18 20 20 20 21
8 8 7 8 7 6 6 7 6 5 4 3 4 3 2 3 6 1 3 5 4 5 4 5 4 3 3 4 4 8 9 10 12 15 15 12 15 19 20 21 18 18 18
8 9 9 8 8 8 7 7 6 6 6 5 5 5 1 1 1 3 3 5 3 4 3 5 5 4 5 5 6 11 11 15 16 16 14 13 18 20 21 19 18 20 19
10 7 9 9 8 8 9 8 7 8 7 8 6 5 4 3 3 1 4 6 2 3 3 3 1 3 6 7 9 12 12 18 18 14 15 17 18 19 18 19 21 21 17
10 10 10 10 10 9 10 9 9 8 8 9 7 8 8 6 6 4 3 4 6 5 3 5 6 5 9 10 12 13 14 17 16 17 18 18 17 16 19 21 17 16 14
14 11 13 13 11 11 10 8 8 8 9 9 10 8 9 10 8 8 7 6 6 8 7 9 8 10 10 12 11 14 15 17 17 15 19 21 14 19 19 17 13 12 13
15 14 14 14 14 14 13 12 11 9 11 11 11 11 12 11 11 11 10 10 10 10 12 13 12 12 11 12 14 14 15 15 15 18 17 21 16 19 15 14 11 12 14
18 17 15 14 14 15 15 15 14 12 12 12 12 12 13 12 12 13 13 12 12 11 13 13 15 15 13 13 14 15 15 15 15 14 22 18 17 18 15 13 11 13 15
21 20 18 17 15 15 17 17 17 16 15 14 13 13 13 13 13 13 12 12 12 12 12 13 14 14 13 14 13 15 14 14 14 16 17 17 19 14 14 14 12 14 15
21 22 22 21 18 16 19 19 20 19 17 16 16 15 14 15 15 14 14 13 13 13 13 14 15 15 13 11 13 14 15 14 15 17 12 15 17 15 8 12 13 15 14
23 22 23 24 23 22 21 21 21 21 19 18 17 17 17 17 17 17 15 16 13 13 15 15 15 14 14 11 13 16 16 15 16 15 13 17 17 12 9 8 11 14 15
25 24 24 25 25 26 27 25 23 20 21 21 19 19 19 20 22 23 22 21 19 16 16 16 17 17 15 16 15 16 16 17 15 13 16 19 16 14 10 8 14 14 17
25 26 27 26 27 28 30 30 30 28 24 23 23 22 22 23 24 21 21 23 24 24 25 22 21 20 20 17 17 16 16 16 18 19 19 18 16 14 9 11 14 12 15
23 25 27 28 29 29 30 32 35 32 30 29 27 26 25 24 23 23 22 22 21 20 21 23 25 25 24 20 18 16 17 17 18 19 15 16 16 17 10 12 15 11 13
22 24 25 26 28 29 30 32 33 30 31 34 33 33 31 30 30 28 28 25 24 24 23 25 27 27 27 26 24 20 20 19 20 19 17 17 17 18 15 16 9 12 12
23 22 24 26 27 29 29 31 32 29 29 32 34 35 37 38 35 34 33 30 29 28 25 23 20 23 24 25 26 28 23 22 22 21 14 10 17 16 13 7 7 9 9
Wind_Direction
114 114 113 114 111 110 100 91 77 65 78 92 89 83 86 89 98 99 97 123 126 109 82 74 27 32 28 16 14 15 2 355 356 358 354 355 0 2 352 355 335 349 349
115 117 116 112 114 104 95 85 74 67 90 102 95 85 86 91 92 99 100 98 68 105 93 81 33 17 359 352 344 345 345 342 346 344 345 351 348 343 333 330 331 334 336
123 128 119 117 120 110 100 90 82 81 102 104 96 89 94 92 94 94 89 86 84 41 32 67 30 10 357 343 331 325 329 334 337 338 340 339 333 330 332 333 325 325 324
142 155 149 135 138 125 117 100 103 95 97 103 95 85 93 98 98 97 89 77 69 69 350 12 8 5 357 349 334 333 337 337 335 332 331 331 331 332 333 330 328 323 316
154 145 146 142 147 140 116 118 110 109 111 100 126 106 98 98 107 97 82 79 66 59 42 325 353 355 351 341 333 336 339 339 340 340 339 337 335 334 331 328 325 320 313
160 146 156 158 162 148 129 127 121 114 89 77 93 92 91 111 104 98 96 117 91 28 31 342 329 332 346 348 341 337 338 342 347 348 349 346 339 331 325 322 318 314 308
173 173 167 161 173 160 120 147 152 137 122 106 207 157 130 164 154 151 130 148 106 223 10 326 341 345 336 343 356 350 348 352 354 351 347 340 333 327 324 321 315 308 301
186 172 182 173 178 164 155 161 177 146 118 90 22 219 146 153 114 61 96 212 242 12 35 317 329 324 327 332 302 335 348 349 344 342 336 329 323 319 314 310 306 301 296
189 174 175 176 173 181 174 163 170 214 128 151 14 336 247 66 180 102 127 115 120 112 38 11 1 333 313 311 323 330 333 334 332 328 325 324 322 319 313 307 301 296 293
192 182 191 185 180 179 180 183 185 189 239 141 140 69 20 4 354 113 103 98 144 167 70 52 78 51 333 334 327 333 325 326 326 326 328 328 328 327 325 324 319 310 298
201 190 188 189 187 185 195 201 199 199 182 198 245 167 56 79 74 330 63 104 115 98 90 69 37 39 17 354 337 318 315 329 340 341 340 339 343 338 329 327 325 323 316
199 205 196 192 194 198 204 197 199 214 232 235 231 243 323 339 63 32 89 86 84 100 70 67 69 61 37 26 18 7 0 355 349 340 339 337 337 333 332 330 333 338 335
206 197 207 198 188 202 208 200 220 228 226 227 231 228 240 210 24 27 326 82 19 78 62 88 68 48 14 351 339 345 338 338 340 338 339 336 329 331 333 333 332 332 332
207 205 208 215 212 205 205 198 202 220 214 214 218 240 234 220 238 316 359 338 293 160 157 360 355 342 340 327 315 340 329 323 330 339 339 338 334 335 330 330 328 331 337
226 207 203 206 212 213 213 197 208 216 219 213 213 224 240 236 241 247 272 307 328 310 299 143 314 327 329 319 310 321 319 313 331 334 335 339 342 340 329 328 333 338 342
233 216 210 207 209 213 215 213 207 205 207 220 229 223 237 246 243 247 260 267 273 288 295 303 299 314 314 315 310 318 313 324 320 320 330 340 338 341 334 335 342 345 344
237 229 220 215 214 218 214 216 223 213 214 225 231 233 237 240 247 253 250 259 263 264 274 284 300 299 307 303 306 308 315 314 318 318 323 335 343 345 337 337 343 345 344
231 229 229 228 219 224 225 218 218 219 217 221 227 230 234 235 240 251 254 257 267 268 271 281 288 292 287 295 299 304 310 313 313 310 328 333 344 345 337 338 344 348 347
228 229 230 234 228 227 228 229 224 224 226 228 229 229 234 233 234 243 241 257 250 251 255 266 285 288 290 291 296 300 304 311 311 317 321 331 337 328 337 343 341 350 351
229 230 230 235 236 232 233 234 233 229 230 233 232 232 233 233 234 234 237 245 258 267 264 265 273 280 281 288 286 295 307 309 312 317 319 325 331 321 306 335 341 350 349
231 230 232 234 237 237 235 229 231 230 232 235 236 232 233 234 234 232 237 240 251 253 262 269 273 279 282 295 310 300 298 307 308 315 315 323 326 315 299 349 331 344 336
233 232 231 231 231 235 239 237 233 233 238 237 236 234 234 235 239 240 240 242 244 248 255 268 276 281 290 282 285 293 306 307 307 312 313 314 316 307 308 289 314 329 336
235 232 234 234 234 232 234 237 239 237 241 240 242 241 239 238 234 238 247 249 249 247 247 251 262 266 277 276 280 286 287 298 296 302 303 304 312 304 307 289 304 322 336
239 236 237 236 236 237 237 237 237 237 241 245 243 243 242 244 239 236 238 240 244 249 252 251 250 256 260 263 265 270 278 283 287 287 283 292 305 302 306 278 300 306 330
241 240 240 240 238 239 237 239 239 237 242 244 245 244 242 242 241 239 238 243 245 248 252 251 255 259 257 258 256 265 270 276 282 290 295 292 292 295 305 295 265 294 314
241 241 245 243 243 245 243 240 237 234 239 242 243 243 244 242 243 241 237 239 246 247 252 259 258 261 264 264 257 251 253 260 272 282 289 290 290 301 307 306 252 278 302